Regional Weather Roundup
Issued by NWS

Home | Current Version | Previous Version | Text Only | Print | Product List | Glossary Off
Versions: 1 2 3 4 5 6 7 8 9 10 11 12 13 14 15 16 17 18 19 20 21 22 23 24 25 26 27 28 29 30 31 32 33 34 35 36 37 38 39 40 41 42 43 44 45 46 47 48 49 50

000
ASUS43 KLSX 200357
RWRMO

WEATHER SUMMARY FOR MISSOURI
NATIONAL WEATHER SERVICE SPRINGFIELD MO
1000 PM CST THU JAN 19 2017

NOTE: "FAIR" INDICATES FEW OR NO CLOUDS BELOW 12,000 FEET WITH NO
       SIGNIFICANT WEATHER AND/OR OBSTRUCTIONS TO VISIBILITY.
       CURRENT SKY AND/OR WEATHER CONDITIONS ARE NOT AVAILABLE FOR
       CHILLICOTHE AND FARMINGTON.

MOZ001>031-035>038-043-044-053-054-200500-
...NORTHERN AND WESTERN MISSOURI...

CITY           SKY/WX    TMP DP  RH WIND       PRES   REMARKS
KANSAS CTY INT DRIZZLE   45  42  89 W3        29.65R FOG
LEE`S SUMMIT   CLOUDY    46  45  96 W3        29.65R
ST JOSEPH      LGT RAIN  43  43 100 CALM      29.66R FOG
CHILLICOTHE      N/A     44  44 100 CALM      29.66S

$$
MOZ066>068-077>081-088>096-101>105-200500-
...SOUTHWEST MISSOURI...

CITY           SKY/WX    TMP DP  RH WIND       PRES   REMARKS
SPRINGFIELD    FOG       50  50 100 SW10      29.62R VSB 3/4
JOPLIN         CLOUDY    50  47  89 CALM      29.64S

$$
MOZ032>034-039>042-045>050-055>058-069>072-200500-
...CENTRAL MISSOURI...

CITY           SKY/WX    TMP DP  RH WIND       PRES   REMARKS
COLUMBIA       FOG       46  46 100 SE5       29.64S VSB 1
JEFFERSON CITY CLOUDY    47  46  97 SE6       29.65S FOG
ROLLA          CLOUDY    47  47 100 CALM      29.63S FOG
SEDALIA        FOG       48  47  96 CALM      29.64S VSB 1/2
WARRENSBURG    FOG       46  46 100 CALM      29.63S VSB 1/4

$$
MOZ051-052-059>065-200500-
...EAST CENTRAL MISSOURI...

CITY           SKY/WX    TMP DP  RH WIND       PRES   REMARKS
ST LOUIS INTL  LGT RAIN  48  46  93 N3        29.65F FOG
SPIRIT OF STL  LGT RAIN  46  46 100 NE3       29.64F FOG

$$
MOZ072>076-082>087-097>100-106>115-200500-
...SOUTH CENTRAL AND SOUTHEAST MISSOURI...

CITY           SKY/WX    TMP DP  RH WIND       PRES   REMARKS
CAPE GIRARDEAU CLOUDY    56  53  90 SW12      29.65F
POPLAR BLUFF   CLOUDY    50  50 100 SW6       29.66F
WEST PLAINS    FOG       48  48 100 SE6       29.65F VSB 1/2

$$



USA.gov is the U.S. government's official web portal to all federal, state and local government web resources and services.